Погода в Калачинске

Погода в Калачинске : погода сейчас, прогноз погоды и архив. Всё, что Вы хотите узнать о погоде в Калачинске!

Хотите узнать прогноз погоды в Калачинске? Тогда Вам сюда: Погода в Калачинске

Поиск расширенной информации на нашем сайте:

Другие новости

Новости СМИ2

Главная страница сайта

Новости сайта

02.10.2013

Напоминаем, что на нашем новом сайте вы можете получить высокодетализированные прогнозы погоды по пунктам России, СНГ и мира (включающие важные для авиации метеовеличины, такие как направление и скорость ветра, видимость, явления погоды, количество и форма облачности, нижняя и верхняя граница облачности), а также ознакомиться с разнообразными материалами по авиационной метеорологии и подборкой полезных ссылок на эту тему.

Сайт Метеоцентр.Азия посвящён разработке технологий оптимизации авиаметеорологического обслуживания, включая проектирование и перспективное создание нескольких автоматизированных авиаметеорологических систем:
- система выпуска высокодетальных прогностических карт явлений погоды для нижнего воздушного пространства по России и ближнему зарубежью;
- система верификации прогнозов TAF (выпускаемых синоптиками официальных АМСГ РФ и ближнего зарубежья) и AUTOTAF (выпускаемых сайтом Метеоцентр.Азия) - выявление ошибок, онлайн-сопоставление с фактической погодой METAR, автоматическое внесение коррективов в прогнозы при резком отклонении фактической погоды от прогноза, подсчёт оправдываемости прогнозов по элементам и в целом;
- система обработки, анализа и отображения авиаметеорологической информации для применения провайдерами метеорологической информации.


Погода в Калачинске - сегодня

Время (UTC), дата Ветер
(°,м/с) 
Видим.   Явления Облачность Т
(°С)
Тd
(°С)
f(%) Тe
(°С)
Pmin
(гПа)
dP
(гПа)
Po
(мм)
O2
(г/м3)
Тmin Tmax R s Состояние
почвы
00 25.05.17 220 (ЮЗ) 20000 м    ясно 
+5.3 +3.9 91 +4  1013.2  0.6  750  296           
03 25.05.17 230 (ЮЗ) 7-10{10}  20000 м  {ливн. осадки}  ясно 
+12.4 +1.8 48 +11  1012.8  0.1  750  289  +3.3    0.0    сухая 
06 25.05.17 230 (ЮЗ) 10-15{17}  20000 м  {ливн. осадки}  10/4 600 м верхняя 
[Cu med, cong|Ci fib]
+16.4 -3.2 26 +15  1011.4  -1.2  749  285           
12 25.05.17 280 (З) 10-16{21}  20000 м  {ливн. осадки}  10/5 600 м кучево-дожд., верхняя 
[Cb cap|Ci fib]
+17.6 -2 26 +17  1011.1  1.1  749  284           
15 25.05.17 300 (СЗ) 7-11{16}  20000 м    ясно 
+12.7 -6.1 26 +11  1014.2  1.1  751  290    +18.9  0.0     
18 25.05.17 360 (С) 3{11}  10 км    ясно 
+5.9 -5.9 42 +5  1017.9  1.1  753  298           
21 25.05.17 230 (ЮЗ) 10 км    ясно 
+2.9 -4.8 57 +2  1019.9  1.8  755  301           
00 26.05.17 250 (З) 20000 м    ясно 
+2 -3.6 66 +1  1022.4  2.5  756  303           
03 26.05.17 300 (СЗ) 20000 м    ясно 
+10 -5.7 33 +9  1024.5  2.4  758  295  +0.2        сухая 
06 26.05.17 300 (СЗ) 5{11}  20000 м    ясно 
+13.7 -6.7 24 +13  1025.1  0.8  759  292           
09 26.05.17 250 (З) 2{10}  20000 м    ясно 
+15.7 -7.3 20 +16  1024.6  -0.4  759  290           
12 26.05.17 230 (ЮЗ) 20000 м    ясно 
+17.1 -5.9 20 +18  1024  -0.5  758  288           
15 26.05.17 120 (ЮВ) 20000 м    10/0 верхняя 
[Ci fib]
+13.8 -4.2 28 +15  1023.7  -0.4  758  291    +17.3       
18 26.05.17 130 (ЮВ) 10 км    10/0 верхняя 
[Ci fib]
+8.4 -3.2 44 +9  1023.8  -0.2  758  297           
21 26.05.17 150 (ЮВ) 10 км    ясно 
+8.1 -3.3 44 +9  1023.1  -0.7  757  297           
00 27.05.17 180 (Ю) 20000 м    ясно 
+7.7 -1.7 51 +9  1022.8  -0.3  757  297           
03 27.05.17 190 (Ю) 20000 м    ясно 
+16.4 -3.2 26 +17  1021.3  -1.1  756  288  +6.9        сухая 
06 27.05.17 170 (Ю) 4{10}  20000 м    ясно 
+20.3 -4 19 +20  1019.1  -2  755  283           
09 27.05.17 170 (Ю) 20000 м    3/0 верхняя 
[Ci fib]
+22.4 -4.6 16 +22  1016.4  -2.6  753  281           
12 27.05.17 140 (ЮВ) 20000 м    10/0 верхняя 
[Ci fib]
+22 -5.4 15 +22  1013.8  -2.6  751  280           
15 27.05.17 120 (ЮВ) 20000 м    10/0 средняя, верхняя 
[Ac As|Ci fib]
+19.5 -3.8 20 +20  1011.3  -2.6  749  282    +23.1       
18 27.05.17 130 (ЮВ) 10 км    10/0 средняя 
[Ac und]
+19.1 -3 22 +20  1009.3  -1.9  747  282           
21 27.05.17 110 (В) 10 км    10/0 средняя, верхняя 
[Ac As|Ci fib]
+16.8 -2.4 27 +17  1006.4  -3  745  283           
03 28.05.17 110 (В) 20000 м  {ливн. осадки}  8/4 600 м кучево-дожд., средняя 
[Cb cap|Ac cuf]
+14.9 +5.9 55 +14  1001.7  -3  742  282  +13.9    0.4    влажная 
15 28.05.17 230 (ЮЗ) 7-12{15}  20000 м    4/3 600 м кучево-дожд., средняя 
[Cb cap|Ac trans]
+20 +6.6 42 +20  998.2  1.5  739  276    +28.1       
Время (UTC), дата Ветер
(°,м/с) 
Видим.   Явления Облачность Т
(°С)
Тd
(°С)
f(%) Тe
(°С)
Pmin
(гПа)
dP
(гПа)
Po
(мм)
O2
(г/м3)
Тmin Tmax R s Состояние
почвы

Для получения пояснительной информации подведите курсор к названию столбца.

ПОГОДА в Калачинске - архив

Всё, что Вы хотите узнать о погоде в Калачинске - удобно и подробно!

Выберите нужную дату (начиная с 1 января 2015* года) и нажмите кнопку "Найти".
Будут отображены архивные сводки погоды по пункту Калачинск, начиная с указанной даты.


Отображать данные в формате CSV (для использования в таблицах Excel)


Внимание! Наш архив погоды предназначен исключительно для личного некоммерческого использования в познавательных целях. Если Вам необходимы официальные справки о состоянии погоды (для производственных, юридических, коммерческих и т.п. целей), обращайтесь в органы Росгидромета.

*Примечание: данная дата относится к архиву по метеостанциям СССР (Россия, СНГ, Балтия).
Архив по метеостанциям Зарубежной Европы и Азии (кроме Китая) хранится 10 дней, по другим регионам земного шара (Китай, Африка, Америка, Австралия, Океания) - 1 день.

Калачинск - район местоположения метеостанции


Название, широта, долгота, высота метеостанции:
Калачинск 55°ш. 74.6°д. 110 м над ур. моря [Российская Федерация]

Дополнительная информация

В oтличие oт бoльшинства пoгoдных сайтoв мы публикуем пoдрoбную метеoинфoрмацию в детальнoм прoфессиoнальнoм фoрмате.

Характеристики температуры и влажнoсти вoздуха измеряются на высoте 2 м в тени вдали oт зданий и деревьев.
Скoрoсть ветра измеряется на высoте 10 м (на урoвне рoста челoвека скoрoсть ветра ниже в 1.5-2 раза). Если метеoстанция нахoдится в гoрoде или в лесу, тo скoрoсть ветра занижена на 2-4 м/с пo сравнению с oткрытым местoм. Скoрoсть ветра над акватoриями крупных рек и oзёр, а также на вершинах хoлмoв на 2-5 м/с выше, чем в oбычных услoвиях.
Атмoсфернoе давление в разных тoчках местнoсти мoжет значительнo oтличаться oт давления на метеoстанции, в зависимoсти oт услoвий рельефа (при пoдъёме на 10 м давление пoнижается примернo на 1 мм рт.ст.).